Volver al catálogo

FENGYUN 1C DEB

ActivoPO
NORAD 31057·DEBRIS·🇨🇳 China

Lanzado May 10, 1999 desde Taiyuan Satellite Launch Center

Loading…

Próximos Pases (próximas 24 horas)

TLE

ActualizadoSource: Space-Track

Época: Sep 13, 2026, 12:24 UTC

1 31057U 99025BFB 26256.51706094  .00005977  00000-0  63853-3 0  9990
2 31057  99.2297 342.8496 0130785 111.8425 249.6754 14.83123009660211

Sigue FENGYUN 1C DEB en tiempo real con AllMySat

Download on the App Store